Location: Township of South Roscoe
(37.9570°N, 100.1180°W)
Time: 06:28:10
(UTC+00:00)

PRISM - Pass Details

Date: 03 July 2022
Orbit: 554 x 578 km, 98.2° (Epoch: 12 August)

Event Time Altitude Azimuth Distance (km) Brightness Sun altitude
Rises 10:41:12 0° 33° (NNE) 2,740 ? -7.6°
Reaches altitude 10° 10:44:05 10° 56° (ENE) 1,839 ? -7.2°
Maximum altitude 10:46:30 16° 94° (E) 1,511 ? -6.8°
Drops below altitude 10° 10:48:54 10° 132° (SE) 1,831 ? -6.4°
Sets 10:51:46 0° 155° (SSE) 2,722 ? -6.0°
